Regional Weather Roundup
Issued by NWS

Home | Current Version | Previous Version | Text Only | Print | Product List | Glossary On
Versions: 1 2 3 4 5 6 7 8 9 10 11 12 13 14 15 16 17 18 19 20 21 22 23 24 25 26 27 28 29 30 31 32 33 34 35 36 37 38 39 40 41 42 43 44 45 46 47 48 49 50
000
ASUS45 KCYS 031210
RWRWY

WYOMING REGIONAL WEATHER ROUNDUP
NATIONAL WEATHER SERVICE CHEYENNE WY
600 AM MDT SUN MAY 03 2015

NOTE:  "FAIR" INDICATES FEW OR NO CLOUDS BELOW 12,000 FEET
WITH NO SIGNIFICANT WEATHER AND/OR OBSTRUCTIONS TO VISIBILITY.

WYZ001-031300-
YELLOWSTONE NATIONAL PARK

CITY           SKY/WX    TMP DP  RH WIND       PRES   REMARKS
LK YELLOWSTONE   N/A     27  22  81 NW3       30.03R
6HR MIN TEMP:  27; 6HR MAX TEMP:  42;

W YELLOWSTONE  NOT AVBL

$$
WYZ002>013-054>058-071-098>099-031300-
NORTHERN WYOMING

CITY           SKY/WX    TMP DP  RH WIND       PRES   REMARKS
JACKSON        MOCLDY    41  34  75 W7        29.97R
CODY           FAIR      43  36  75 N9        29.98R
GREYBULL       FAIR      49  36  61 NW20      29.89R
6HR MIN TEMP:  49; 6HR MAX TEMP:  63;

WORLAND        FAIR      49  32  52 NW5       29.92R
6HR MIN TEMP:  46; 6HR MAX TEMP:  64;

SHERIDAN       FAIR      45  36  70 W10       29.96S
6HR MIN TEMP:  45; 6HR MAX TEMP:  58;

BUFFALO        CLOUDY    49  35  58 NW9       29.99R
6HR MIN TEMP:  49; 6HR MAX TEMP:  58;

GILLETTE       FAIR      48  33  56 N9        29.94R
6HR MIN TEMP:  41; 6HR MAX TEMP:  51;

HULETT         FAIR      48  32  53 NE6       29.96R
NEWCASTLE      FAIR      55  27  33 NE16      29.86R

$$
WYZ014>020-022>026-101>103-031300-
CENTRAL WYOMING

CITY           SKY/WX    TMP DP  RH WIND       PRES   REMARKS
BIG PINEY      FAIR      36  29  75 CALM      30.03R
6HR MIN TEMP:  36; 6HR MAX TEMP:  45;

PINEDALE       CLOUDY    36  32  87 CALM      30.03S
DUBOIS         FAIR      39  28  65 CALM      29.99R
LANDER         FAIR      51  32  48 N15       29.91R
6HR MIN TEMP:  51; 6HR MAX TEMP:  63;

RIVERTON       FAIR      49  29  46 NE8       29.93R
6HR MIN TEMP:  47; 6HR MAX TEMP:  58;

CASPER         FAIR      38  30  73 SW3       29.96R
6HR MIN TEMP:  38; 6HR MAX TEMP:  57;

DOUGLAS        FAIR      46  36  68 NW10      29.92R
6HR MIN TEMP:  46; 6HR MAX TEMP:  57;


$$
WYZ021-027>030-104>119-031300-
SOUTHERN WYOMING

CITY           SKY/WX    TMP DP  RH WIND       PRES   REMARKS
EVANSTON       CLOUDY    46  30  53 SW5       30.03R
6HR MIN TEMP:  46; 6HR MAX TEMP:  53;

KEMMERER       CLOUDY    45  32  61 S8        30.03R
FORT BRIDGER   CLOUDY    48  32  53 W5        30.04S
ROCK SPRINGS   CLOUDY    45  38  76 SW7       30.02R
6HR MIN TEMP:  42; 6HR MAX TEMP:  48;

DIXON          PTSUNNY   44  35  71 E6        30.03F
RAWLINS        CLOUDY    49  33  54 SW12G17   30.00S
6HR MIN TEMP:  47; 6HR MAX TEMP:  55;

SARATOGA       PTSUNNY   45  34  65 S5        30.03R
LARAMIE        FAIR      42  31  64 W10       29.99S
6HR MIN TEMP:  42; 6HR MAX TEMP:  50;

CHEYENNE       FAIR      52  33  48 W15G21    29.92F
6HR MIN TEMP:  52; 6HR MAX TEMP:  57;

TORRINGTON     FAIR      51  39  63 NW12      29.83R
6HR MIN TEMP:  48; 6HR MAX TEMP:  60;

PINE BLUFFS    FAIR      41  37  87 SW6       29.90S

$$


USA.gov is the U.S. government's official web portal to all federal, state and local government web resources and services.